Home   Weather   Saipan   Past weeks

Flag for Northern Mariana Islands Past Weather in Saipan, Northern Mariana Islands — Yesterday and Last 2 Weeks

Now
81 °F

Passing clouds.


Feels Like: 87 °F
Forecast: 76 / 85 °F
Wind: 3 mph from Northwest

Location: Saipan International Airport

Current Time: Aug 31, 2016 at 5:12:23 AM

Latest Report: Aug 31, 2016 at 4:54 AM


Visibility: 10 mi

Pressure: 29.92 "Hg

Humidity: 85%

Dew Point: 76 °F

Location of SaipanLocation

Past Weather in Saipan — Graph

°F

Saipan Temperature Yesterday

Maximum temperature yesterday: 89 °F (at 12:54 PM)
Minimum temperature yesterday: 81 °F (at 1:54 AM)
Average temperature yesterday: 85 °F

High & Low Weather Summary for the Past Weeks

 TemperatureHumidityPressure
High90 °F (Aug 20, 12:27 PM)100% (Aug 17, 8:33 AM)30.00 "Hg (Aug 17, 8:33 AM)
Low77 °F (Aug 17, 6:54 PM)65% (Aug 30, 12:54 PM)29.50 "Hg (Aug 18, 4:58 AM)
Average83 °F86%29.78 "Hg
* Reported Aug 16 3:54 AM — Aug 31 3:54 AM, Saipan, Weather by CustomWeather, © 2016

Note: Actual official high and low records may vary slightly from our data, if they occured in-between our weather recording intervals... More about our weather records

Advertising

Saipan Weather History for the Previous 24 Hours

Scroll right to see more
 ConditionsComfort  
Time TempWeatherWind HumidityBarometerVisibility
3:54 AM
Wed, Aug 31
81 °FPassing clouds.6 mph88%29.93 "Hg10 mi
2:54 AM81 °FPassing clouds.3 mph88%29.94 "Hg10 mi
1:54 AM81 °FOvercast.3 mph85%29.95 "Hg10 mi
12:54 AM81 °FMostly cloudy.3 mph85%29.97 "Hg10 mi
11:54 PM
Tue, Aug 30
82 °FPassing clouds.3 mph85%29.98 "Hg10 mi
10:54 PM83 °FOvercast.3 mph82%29.98 "Hg10 mi
9:54 PM83 °FPassing clouds.No wind79%29.99 "Hg10 mi
8:54 PM83 °FPassing clouds.No wind79%29.98 "Hg10 mi
7:54 PM83 °FPassing clouds.No wind79%29.96 "Hg10 mi
6:54 PM83 °FPassing clouds.3 mph79%29.94 "Hg8 mi
5:54 PM85 °FScattered clouds.5 mph75%29.92 "Hg10 mi
4:54 PM88 °FPassing clouds.6 mph65%29.90 "Hg10 mi
3:54 PM88 °FPassing clouds.7 mph67%29.89 "Hg10 mi
2:54 PM88 °FPassing clouds.8 mph70%29.89 "Hg10 mi
1:54 PM89 °FSunny.7 mph68%29.90 "Hg10 mi
12:54 PM89 °FPassing clouds.8 mph65%29.91 "Hg10 mi
11:54 AM88 °FPassing clouds.5 mph67%29.93 "Hg10 mi
10:54 AM88 °FPassing clouds.6 mph67%29.96 "Hg10 mi
9:54 AM88 °FScattered clouds.6 mph73%29.96 "Hg10 mi
8:54 AM86 °FSunny.6 mph77%29.96 "Hg10 mi
7:54 AM84 °FPassing clouds.7 mph83%29.95 "Hg10 mi
6:54 AM83 °FPartly sunny.5 mph82%29.93 "Hg10 mi
5:54 AM82 °FPassing clouds.5 mph85%29.92 "Hg10 mi
Weather by CustomWeather, © 2016

See weather overviewHow to use our weather pages